Date String (YYYY-MM-DD hh:mm:ss) UTC,Instrument flags,absolute air pressure of the measurement (hPa),sample flow rate (lpm),inlet stack bypass flow (lpm),air temperature of the measurement (°C),ambient temperature measured by the external sensor (°C),aerosol sample conditioner tube jacket temperature (°C),OPC LED temperature (°C),internal box temperature (°C),relative humidity of the measurement (%),span deviation,mass concentration of particles derived from Lorenz-Mie calculation of OPC scattering (μg/m³),mass concentration of particles derived from Lorenz-Mie calculation of OPC scattering (μg/m³),mass concentration of particles derived from Lorenz-Mie calculation of OPC scattering (μg/m³)
DateTimeUTC,F1_M11,P_M11,Q1_M11,Q2_M11,T1_M11,T2_M11,T3_M11,T4_M11,T5_M11,U1_M11,ZSPAN_M11,X2_M11,X0_M11,X1_M11
2023-06-08 21:00:00,SystemResetWarning,0829.9,4.99,000.00,029.2,026.1,000.0,037.7,030.7,25.8,0000.0,0003.26,0007.12,0002.69
2023-06-08 21:01:00,SystemResetWarning,0829.9,5.00,000.00,029.2,026.4,000.0,037.7,030.8,26.5,0000.0,0003.24,0007.47,0002.69
2023-06-08 21:02:00,SystemResetWarning,0829.9,5.00,000.00,029.2,026.8,000.0,037.7,030.8,26.2,0000.0,0003.22,0007.39,0002.69
2023-06-08 21:03:00,SystemResetWarning,0830.0,5.00,000.00,029.2,027.1,000.0,037.7,030.8,26.2,0000.0,0003.19,0007.28,0002.69
2023-06-08 21:04:00,SystemResetWarning,0829.9,5.00,000.00,029.3,027.4,000.0,037.8,030.9,25.4,0000.0,0003.23,0007.41,0002.70
2023-06-08 21:05:00,SystemResetWarning,0829.9,5.00,000.00,029.3,027.6,000.0,037.8,030.9,26.5,0000.0,0003.27,0007.55,0002.71
2023-06-08 21:06:00,SystemResetWarning,0830.0,5.00,000.00,029.3,027.8,000.0,037.8,031.0,26.6,0000.0,0003.27,0007.72,0002.73
2023-06-08 21:07:00,SystemResetWarning,0830.0,4.99,000.00,029.4,028.0,000.0,037.8,031.0,26.2,0000.0,0003.26,0008.10,0002.74
2023-06-08 21:08:00,SystemResetWarning,0830.0,5.00,000.00,029.4,028.0,000.0,037.8,031.0,26.2,0000.0,0003.23,0008.11,0002.74
2023-06-08 21:09:00,SystemResetWarning,0830.0,5.00,000.00,029.4,026.4,000.0,037.8,031.0,25.5,0000.0,0003.22,0008.95,0002.75
2023-06-08 21:10:00,SystemResetWarning,0830.0,5.02,000.00,029.4,025.4,000.0,037.8,031.0,26.3,0000.0,0003.22,0008.50,0002.75
2023-06-08 21:11:00,SystemResetWarning,0830.0,5.00,000.00,029.4,025.5,000.0,037.7,030.9,25.8,0000.0,0003.24,0008.44,0002.75
2023-06-08 21:12:00,SystemResetWarning,0829.9,4.99,000.00,029.3,025.8,000.0,037.8,030.7,25.6,0000.0,0003.26,0008.41,0002.77
2023-06-08 21:13:00,SystemResetWarning,0829.9,5.00,000.00,029.3,026.2,000.0,037.8,030.7,25.8,0000.0,0003.27,0008.61,0002.77
2023-06-08 21:14:00,SystemResetWarning,0829.9,5.01,000.00,029.3,026.6,000.0,037.8,030.8,27.1,0000.0,0003.30,0008.80,0002.78
2023-06-08 21:15:00,SystemResetWarning,0829.9,5.00,000.00,029.3,026.9,000.0,037.8,030.8,26.5,0000.0,0003.27,0008.97,0002.76
2023-06-08 21:16:00,SystemResetWarning,0829.9,5.00,000.00,029.3,027.2,000.0,037.8,030.9,26.4,0000.0,0003.24,0009.69,0002.76
2023-06-08 21:17:00,SystemResetWarning,0829.9,5.00,000.00,029.3,027.5,000.0,037.8,030.9,26.5,0000.0,0003.22,0009.46,0002.75
2023-06-08 21:18:00,SystemResetWarning,0829.9,5.01,000.00,029.4,027.7,000.0,037.8,031.0,26.0,0000.0,0003.23,0009.06,0002.75
2023-06-08 21:19:00,SystemResetWarning,0829.9,5.00,000.00,029.4,027.9,000.0,037.8,031.0,25.6,0000.0,0003.23,0008.87,0002.74
2023-06-08 21:20:00,SystemResetWarning,0829.9,5.00,000.00,029.4,027.7,000.0,037.8,031.1,26.0,0000.0,0003.26,0008.44,0002.75
2023-06-08 21:21:00,SystemResetWarning,0829.8,4.99,000.00,029.4,025.9,000.0,037.8,031.0,25.5,0000.0,0003.24,0008.34,0002.74
2023-06-08 21:22:00,SystemResetWarning,0829.8,5.01,000.00,029.4,025.3,000.0,037.7,031.0,25.5,0000.0,0003.26,0008.60,0002.73
2023-06-08 21:23:00,SystemResetWarning,0829.8,5.00,000.00,029.4,025.6,000.0,037.8,030.9,25.8,0000.0,0003.27,0009.10,0002.71
2023-06-08 21:24:00,SystemResetWarning,0829.8,5.00,000.00,029.3,025.9,000.0,037.8,030.7,25.7,0000.0,0003.27,0009.08,0002.71
2023-06-08 21:25:00,SystemResetWarning,0829.8,4.99,000.00,029.3,026.3,000.0,037.8,030.8,26.0,0000.0,0003.28,0009.11,0002.72
2023-06-08 21:26:00,SystemResetWarning,0829.8,5.00,000.00,029.3,026.7,000.0,037.8,030.8,26.5,0000.0,0003.30,0008.94,0002.73
2023-06-08 21:27:00,SystemResetWarning,0829.8,5.00,000.00,029.3,027.0,000.0,037.8,030.9,25.6,0000.0,0003.31,0008.18,0002.73
2023-06-08 21:28:00,SystemResetWarning,0829.8,4.98,000.00,029.3,027.4,000.0,037.8,030.9,25.9,0000.0,0003.34,0008.31,0002.74
2023-06-08 21:29:00,SystemResetWarning,0829.8,5.00,000.00,029.4,027.6,000.0,037.8,031.0,26.0,0000.0,0003.35,0008.74,0002.73
2023-06-08 21:30:00,SystemResetWarning,0829.8,5.01,000.00,029.4,027.9,000.0,037.8,031.0,26.6,0000.0,0003.38,0009.59,0002.74
2023-06-08 21:31:00,SystemResetWarning,0829.8,5.00,000.00,029.4,028.0,000.0,037.9,031.1,26.5,0000.0,0003.36,0009.28,0002.74
2023-06-08 21:32:00,SystemResetWarning,0829.8,5.00,000.00,029.5,028.1,000.0,037.9,031.2,25.8,0000.0,0003.37,0009.41,0002.74
2023-06-08 21:33:00,SystemResetWarning,0829.8,4.98,000.00,029.5,026.5,000.0,037.9,031.2,26.2,0000.0,0003.34,0009.55,0002.73
2023-06-08 21:34:00,SystemResetWarning,0829.8,5.00,000.00,029.5,024.7,000.0,037.8,031.0,26.9,0000.0,0003.31,0008.71,0002.73
2023-06-08 21:35:00,SystemResetWarning,0829.8,5.00,000.00,029.4,024.5,000.0,037.8,030.9,26.8,0000.0,0003.30,0008.55,0002.75
2023-06-08 21:36:00,SystemResetWarning,0829.8,5.01,000.00,029.3,024.9,000.0,037.8,030.6,27.0,0000.0,0003.30,0008.47,0002.75
2023-06-08 21:37:00,SystemResetWarning,0829.7,4.98,000.00,029.2,025.3,000.0,037.8,030.6,27.4,0000.0,0003.28,0008.29,0002.74
2023-06-08 21:38:00,SystemResetWarning,0829.7,4.99,000.00,029.2,025.8,000.0,037.8,030.7,27.4,0000.0,0003.26,0008.21,0002.74
2023-06-08 21:39:00,SystemResetWarning,0829.8,5.02,000.00,029.2,026.3,000.0,037.8,030.8,26.2,0000.0,0003.23,0008.43,0002.73
2023-06-08 21:40:00,SystemResetWarning,0829.8,4.99,000.00,029.2,026.7,000.0,037.8,030.8,26.2,0000.0,0003.21,0008.22,0002.74
2023-06-08 21:41:00,SystemResetWarning,0829.8,5.00,000.00,029.2,027.1,000.0,037.8,030.8,25.9,0000.0,0003.21,0007.50,0002.74
2023-06-08 21:42:00,SystemResetWarning,0829.8,5.01,000.00,029.3,027.4,000.0,037.8,030.9,25.3,0000.0,0003.21,0006.86,0002.73
2023-06-08 21:43:00,SystemResetWarning,0829.8,5.01,000.00,029.3,027.6,000.0,037.8,030.9,25.1,0000.0,0003.21,0006.63,0002.74
2023-06-08 21:44:00,SystemResetWarning,0829.7,5.00,000.00,029.3,027.8,000.0,037.8,031.0,24.9,0000.0,0003.21,0005.88,0002.76
2023-06-08 21:45:00,SystemResetWarning,0829.7,5.00,000.00,029.4,028.0,000.0,037.8,031.0,24.8,0000.0,0003.23,0006.07,0002.75
2023-06-08 21:46:00,SystemResetWarning,0829.7,5.00,000.00,029.4,028.2,000.0,037.9,031.1,24.8,0000.0,0003.24,0006.07,0002.74
2023-06-08 21:47:00,SystemResetWarning,0829.6,4.98,000.00,029.5,027.3,000.0,037.8,031.1,24.7,0000.0,0003.24,0006.04,0002.74
2023-06-08 21:48:00,SystemResetWarning,0829.6,5.00,000.00,029.4,025.6,000.0,037.8,031.0,24.9,0000.0,0003.25,0006.14,0002.75
2023-06-08 21:49:00,SystemResetWarning,0829.6,5.01,000.00,029.4,025.4,000.0,037.8,031.0,25.0,0000.0,0003.25,0006.13,0002.76
2023-06-08 21:50:00,SystemResetWarning,0829.6,5.00,000.00,029.3,025.7,000.0,037.8,030.8,25.1,0000.0,0003.27,0006.00,0002.78
2023-06-08 21:51:00,SystemResetWarning,0829.6,4.99,000.00,029.3,026.1,000.0,037.8,030.8,25.2,0000.0,0003.33,0006.97,0002.80
2023-06-08 21:52:00,SystemResetWarning,0829.6,4.99,000.00,029.3,026.5,000.0,037.8,030.8,25.7,0000.0,0003.35,0007.19,0002.80
2023-06-08 21:53:00,SystemResetWarning,0829.5,5.01,000.00,029.3,026.8,000.0,037.8,030.8,25.7,0000.0,0003.37,0008.10,0002.79
2023-06-08 21:54:00,SystemResetWarning,0829.5,5.00,000.00,029.3,027.1,000.0,037.8,030.9,25.6,0000.0,0003.36,0008.22,0002.79
2023-06-08 21:55:00,SystemResetWarning,0829.5,4.99,000.00,029.3,027.4,000.0,037.8,030.9,25.4,0000.0,0003.34,0008.21,0002.79
2023-06-08 21:56:00,SystemResetWarning,0829.5,5.00,000.00,029.4,027.7,000.0,037.8,031.0,25.3,0000.0,0003.34,0008.16,0002.80
2023-06-08 21:57:00,SystemResetWarning,0829.5,5.00,000.00,029.4,027.9,000.0,037.9,031.0,25.9,0000.0,0003.32,0008.11,0002.80
2023-06-08 21:58:00,SystemResetWarning,0829.5,5.01,000.00,029.5,028.0,000.0,037.9,031.1,25.8,0000.0,0003.30,0008.08,0002.80
2023-06-08 21:59:00,SystemResetWarning,0829.5,4.99,000.00,029.5,026.7,000.0,037.9,031.1,26.0,0000.0,0003.29,0008.40,0002.78
